Volver al catálogo

KUIPER-00532

ActivoComunicacionesVLEO
NORAD 69604·PAYLOAD·🇺🇸 United States

Lanzado Jun 17, 2026 desde Guiana Space Centre

Loading…

Próximos Pases (próximas 24 horas)

TLE

ActualizadoSource: CelesTrak SupGP

Época: Sep 14, 2026, 22:17 UTC

1 69604C 26140N   26257.92856482 -.00736500  00000+0 -53333-1 0  2571
2 69604  51.8907 327.4544 0003436 205.0698 190.0949 15.04204660    13

Sigue KUIPER-00532 en tiempo real con AllMySat

Download on the App Store